O872 KPVU-NONE

Flight info

Callsign O872
Flight time N/A
Altitude VFR/
Route /N/
Aircraft CC19/L-VGD/C

Departure

Time 2026-04-25 02:51
Airport Provo Municipal Airport (KPVU)

Arrival

Time N/A
Airport NONE
Time Latitude Longitude Altitude Speed Heading
2026-04-25 02:47 40.21496 -111.71680 4496 ft 20 kts 146°
2026-04-25 02:48 40.21367 -111.71562 4495 ft 26 kts 149°
2026-04-25 02:48 40.21232 -111.71446 4496 ft 22 kts 145°
2026-04-25 02:48 40.21129 -111.71409 4495 ft 15 kts 231°
2026-04-25 02:48 40.21123 -111.71420 4494 ft 0 kts 236°
2026-04-25 02:50 40.21090 -111.71517 4493 ft 10 kts 277°
2026-04-25 02:50 40.21124 -111.71568 4495 ft 0 kts 328°
2026-04-25 02:50 40.21208 -111.71643 4493 ft 40 kts 325°
2026-04-25 02:51 40.21625 -111.72023 4553 ft 93 kts 324°
2026-04-25 02:51 40.22195 -111.72532 4654 ft 106 kts 328°
2026-04-25 02:51 40.22806 -111.73003 4932 ft 104 kts 327°
2026-04-25 02:51 40.23437 -111.73504 5100 ft 107 kts 329°
2026-04-25 02:52 40.24079 -111.74013 5249 ft 109 kts 328°
2026-04-25 02:52 40.24747 -111.74527 5388 ft 113 kts 328°
2026-04-25 02:52 40.25430 -111.75057 5519 ft 116 kts 328°
2026-04-25 02:52 40.25892 -111.75420 5607 ft 117 kts 328°
2026-04-25 02:53 40.26597 -111.75967 5728 ft 118 kts 328°
2026-04-25 02:53 40.27539 -111.76697 5900 ft 118 kts 328°
2026-04-25 02:53 40.28008 -111.77061 5984 ft 118 kts 328°
2026-04-25 02:53 40.28711 -111.77608 6110 ft 117 kts 328°
2026-04-25 02:54 40.29413 -111.78159 6231 ft 117 kts 328°
2026-04-25 02:54 40.30113 -111.78701 6346 ft 116 kts 328°
2026-04-25 02:54 40.30795 -111.79230 6459 ft 111 kts 328°
2026-04-25 02:54 40.31465 -111.79736 6494 ft 113 kts 328°
2026-04-25 02:55 40.32135 -111.80244 6495 ft 111 kts 329°
2026-04-25 02:55 40.32771 -111.80798 6499 ft 109 kts 328°
2026-04-25 02:55 40.33396 -111.81351 6496 ft 108 kts 328°
2026-04-25 02:55 40.34031 -111.81886 6500 ft 107 kts 328°
2026-04-25 02:56 40.34676 -111.82316 6501 ft 106 kts 338°
2026-04-25 02:56 40.35365 -111.82703 6501 ft 106 kts 337°
2026-04-25 02:56 40.36059 -111.83088 6497 ft 111 kts 337°
2026-04-25 02:56 40.36768 -111.83472 6497 ft 109 kts 337°
2026-04-25 02:57 40.37460 -111.83839 6488 ft 107 kts 337°
2026-04-25 02:57 40.38147 -111.84189 6495 ft 107 kts 338°
2026-04-25 02:57 40.38826 -111.84551 6615 ft 101 kts 336°
2026-04-25 02:57 40.39476 -111.84892 6834 ft 100 kts 336°
2026-04-25 02:58 40.40111 -111.85210 7065 ft 96 kts 338°
2026-04-25 02:58 40.40742 -111.85420 7299 ft 94 kts 354°
2026-04-25 02:58 40.41397 -111.85430 7531 ft 94 kts 351°
2026-04-25 02:58 40.42056 -111.85429 7764 ft 97 kts 352°
2026-04-25 02:59 40.42732 -111.85427 8015 ft 96 kts 353°
2026-04-25 02:59 40.43399 -111.85406 8262 ft 95 kts 351°
2026-04-25 02:59 40.44061 -111.85335 8475 ft 97 kts 353°
2026-04-25 02:59 40.44784 -111.85286 8492 ft 109 kts 354°
2026-04-25 03:00 40.45546 -111.85263 8493 ft 109 kts 353°
2026-04-25 03:00 40.46318 -111.85218 8492 ft 115 kts 353°
2026-04-25 03:00 40.47118 -111.85180 8490 ft 113 kts 352°
2026-04-25 03:00 40.47906 -111.85141 8493 ft 115 kts 354°
2026-04-25 03:01 40.48719 -111.85134 8487 ft 119 kts 354°
2026-04-25 03:01 40.49542 -111.85099 8499 ft 118 kts 355°
2026-04-25 03:01 40.50369 -111.85095 8491 ft 121 kts 353°
2026-04-25 03:01 40.51222 -111.85126 8488 ft 123 kts 352°
2026-04-25 03:02 40.52074 -111.85157 8487 ft 122 kts 352°
2026-04-25 03:02 40.52923 -111.85160 8486 ft 122 kts 354°
2026-04-25 03:02 40.53771 -111.85175 8483 ft 122 kts 354°
2026-04-25 03:02 40.54609 -111.85209 8481 ft 122 kts 353°
2026-04-25 03:03 40.55460 -111.85221 8480 ft 122 kts 353°
2026-04-25 03:03 40.56311 -111.85232 8450 ft 123 kts 353°
2026-04-25 03:03 40.57193 -111.85261 8337 ft 129 kts 352°
2026-04-25 03:03 40.58094 -111.85302 8232 ft 131 kts 352°
2026-04-25 03:04 40.59011 -111.85324 8109 ft 132 kts 354°
2026-04-25 03:04 40.59927 -111.85361 7988 ft 132 kts 353°
2026-04-25 03:04 40.60846 -111.85410 7863 ft 131 kts 353°
2026-04-25 03:05 40.62669 -111.85507 7617 ft 131 kts 353°
2026-04-25 03:05 40.63572 -111.85578 7494 ft 132 kts 353°
2026-04-25 03:05 40.64486 -111.85653 7374 ft 131 kts 353°
2026-04-25 03:05 40.65400 -111.85713 7255 ft 132 kts 356°
2026-04-25 03:06 40.66316 -111.85746 7139 ft 132 kts 355°
2026-04-25 03:06 40.67240 -111.85792 7017 ft 132 kts 355°
2026-04-25 03:06 40.68155 -111.85826 6896 ft 131 kts 355°